Milford, UT

10:27 AM MDT on October 14, 2019 (GMT -0600)
Milford Municipal

Weather History for KMLF - September, 2019

Change the Weather History Date:

Saturday, September 21, 2019

  Actual Average Record
Temperature  
Mean Temperature 56 °F -  
Max Temperature 70 °F 77 °F 90 °F (2015)
Min Temperature 43 °F 41 °F 30 °F (2006)
Degree Days  
Heating Degree Days 10    
Growing Degree Days 6 (Base 50)    
Moisture  
Dew Point 31 °F    
Average Humidity 42    
Maximum Humidity 65    
Minimum Humidity 21    
Precipitation  
Precipitation 0.00 in - - ()
Sea Level Pressure  
Sea Level Pressure 30.07 in    
Wind  
Wind Speed 8 mph ()    
Max Wind Speed 14 mph    
Max Gust Speed 20 mph    
Visibility 10.0 miles    
Events      
Averages and records for this station are not official NWS values.
T = Trace of Precipitation, MM = Missing Value Source: Averaged Metar Reports

Daily Weather History Graph

Daily Weather History Graph

Search for Another Location

Airport or City:

Astronomy

Sep. 21, 2019 Rise Set
Actual Time 7:18 AM MDT 7:30 PM MDT
Civil Twilight 6:52 AM MDT 7:57 PM MDT
Nautical Twilight 6:21 AM MDT 8:28 PM MDT
Astronomical Twilight 5:49 AM MDT 8:59 PM MDT
Moon No Moon Rise 2:23 PM MDT (9/21)
Length of Visible Light 13h 04m
Length of Day
12h 12m
Waning Gibbous, 54% of the Moon is Illuminated
Sep 21
Waning Gibbous
Sep 21
Last Quarter
Sep 28
New
Oct 5
First Quarter
Oct 13
Full

Hourly Weather History & Observations

Time (MDT) Temp. Windchill Dew Point Humidity Pressure Visibility Wind Dir Wind Speed Gust Speed Precip Events Conditions
12:52 AM 48.0 °F - 33.1 °F 56% 30.00 in 10.0 mi NNW 12.7 mph - N/A   Clear
1:52 AM 46.9 °F - 33.1 °F 59% 30.02 in 10.0 mi NNW 13.8 mph - N/A   Clear
2:52 AM 44.1 °F 40.8 °F 32.0 °F 63% 30.03 in 10.0 mi North 5.8 mph - N/A   Clear
3:52 AM 48.0 °F - 33.1 °F 56% 30.01 in 10.0 mi North 5.8 mph - N/A   Clear
4:52 AM 43.0 °F - 32.0 °F 65% 30.03 in 10.0 mi Calm Calm - N/A   Clear
5:52 AM 44.1 °F 41.5 °F 32.0 °F 63% 30.03 in 10.0 mi NNW 4.6 mph - N/A   Clear
6:52 AM 44.1 °F - 32.0 °F 63% 30.05 in 10.0 mi Calm Calm - N/A   Clear
7:52 AM 44.1 °F 41.5 °F 32.0 °F 63% 30.08 in 10.0 mi North 4.6 mph - N/A   Clear
8:52 AM 48.0 °F - 33.1 °F 56% 30.09 in 10.0 mi North 4.6 mph - N/A   Mostly Cloudy
9:52 AM 57.0 °F - 34.0 °F 42% 30.08 in 10.0 mi North 10.4 mph - N/A   Mostly Cloudy
10:15 AM 55.9 °F - 33.1 °F 42% 30.18 in 10.0 mi North 13.8 mph - N/A   Scattered Clouds
10:52 AM 59.0 °F - 33.1 °F 38% 30.08 in 10.0 mi North 11.5 mph 18.4 mph N/A   Clear
11:14 AM 60.1 °F - 33.1 °F 36% 30.18 in 10.0 mi North 13.8 mph - N/A   Clear
11:18 AM 59.0 °F - 33.1 °F 38% 30.18 in 10.0 mi North 13.8 mph - N/A   Clear
11:20 AM 59.0 °F - 33.1 °F 38% 30.18 in 10.0 mi North 13.8 mph - N/A   Clear
11:29 AM 59.0 °F - 32.0 °F 36% 30.17 in 10.0 mi North 11.5 mph - N/A   Clear
11:34 AM 61.0 °F - 32.0 °F 34% 30.17 in 10.0 mi North 11.5 mph - N/A   Clear
11:52 AM 62.1 °F - 32.0 °F 32% 30.06 in 10.0 mi NNE 11.5 mph - N/A   Clear
12:52 PM 64.0 °F - 30.0 °F 28% 30.05 in 10.0 mi NNE 12.7 mph 19.6 mph N/A   Clear
1:52 PM 66.9 °F - 28.9 °F 24% 30.02 in 10.0 mi North 13.8 mph 18.4 mph N/A   Clear
2:52 PM 66.9 °F - 28.9 °F 24% 30.02 in 10.0 mi ENE 9.2 mph - N/A   Clear
3:52 PM 68.0 °F - 28.9 °F 23% 29.99 in 10.0 mi ENE 8.1 mph - N/A   Clear
4:52 PM 68.0 °F - 28.0 °F 22% 29.99 in 10.0 mi ENE 8.1 mph - N/A   Clear
5:52 PM 68.0 °F - 26.1 °F 21% 29.99 in 10.0 mi NE 9.2 mph - N/A   Clear
6:52 PM 64.9 °F - 28.0 °F 25% 30.00 in 10.0 mi NNE 12.7 mph - N/A   Clear
7:52 PM 57.0 °F - 28.0 °F 33% 30.03 in 10.0 mi North 6.9 mph - N/A   Clear
8:52 PM 52.0 °F - 27.0 °F 38% 30.05 in 10.0 mi NNW 5.8 mph - N/A   Clear
9:52 PM 48.9 °F - 26.1 °F 41% 30.06 in 10.0 mi NW 4.6 mph - N/A   Clear
10:52 PM 48.9 °F - 27.0 °F 43% 30.06 in 10.0 mi NE 4.6 mph - N/A   Clear
11:52 PM 45.0 °F 43.5 °F 25.0 °F 46% 30.07 in 10.0 mi North 3.5 mph - N/A   Clear